CAPE
0 0 0 0 0 0 0 0 0 0 0 0 0 0 0 0 0 0 0 0 0 1075 939 0 3 574 393 348 563 638 630 125 63 42 172 275 113 494 243 180 180 301 374 545 477
0 0 0 0 0 0 0 0 0 0 0 0 0 0 0 0 0 0 0 1285 1010 938 0 1 152 616 291 340 712 1170 144 0 17 2 212 397 262 132 133 278 359 453 524 455 432
0 0 0 0 0 0 0 0 0 0 0 0 0 0 0 0 0 0 1652 1645 706 426 0 12 347 376 245 304 843 891 246 0 46 229 45 254 219 131 386 245 458 312 407 405 412
0 0 0 0 0 0 0 0 0 0 0 0 0 0 0 0 0 0 472 1657 1098 5 0 65 146 146 177 432 717 767 547 365 424 443 195 234 194 38 253 373 483 349 270 370 378
0 0 0 0 0 0 0 0 0 0 0 0 0 0 0 0 0 0 1011 1324 0 0 0 57 53 42 186 236 306 735 687 386 311 267 110 349 140 155 509 124 484 276 261 269 318
0 0 0 0 0 0 0 0 0 0 0 0 0 0 0 0 0 0 0 0 0 0 0 115 98 59 97 158 340 205 252 276 426 266 126 250 113 205 477 772 563 278 265 159 170
0 0 0 0 0 0 0 0 0 0 0 0 0 0 0 0 0 0 0 0 0 0 0 35 31 209 232 213 355 651 441 215 307 260 249 36 173 251 332 466 797 380 279 148 105
0 0 0 0 0 0 0 0 0 0 0 0 0 0 0 0 0 0 0 0 0 0 0 0 0 161 312 341 473 317 251 244 352 210 188 109 171 254 368 196 785 538 306 221 20
0 0 0 0 0 0 0 0 0 0 0 0 0 0 0 0 0 0 0 0 0 0 0 0 59 178 180 233 603 522 235 322 342 221 194 390 224 279 349 15 634 542 472 275 18
0 0 0 0 0 0 0 0 0 0 0 0 0 0 0 0 0 0 0 0 0 0 0 0 16 16 66 223 460 142 389 401 263 139 70 150 21 356 41 4 266 481 544 405 149
0 0 0 0 0 0 0 0 0 0 0 0 0 0 0 0 0 0 0 0 0 0 0 1 3 5 35 153 210 95 109 86 72 21 12 141 378 276 0 37 218 298 486 376 248
0 0 0 0 0 0 0 0 0 0 0 0 0 0 0 0 0 0 0 0 0 3 0 3 15 30 47 118 253 139 76 52 42 49 24 13 26 111 0 30 79 152 269 302 266
0 0 0 0 0 0 0 0 0 0 0 0 0 0 0 0 0 0 0 0 0 0 0 2 66 83 58 530 155 61 6 3 3 89 28 5 42 200 24 84 11 0 40 123 171
0 0 0 0 0 0 0 0 0 0 0 0 0 0 0 0 0 0 0 0 0 0 0 0 17 25 63 326 343 196 28 9 9 0 3 180 538 477 121 138 105 0 0 7 85
0 0 0 0 0 0 0 0 0 0 0 0 0 0 0 0 0 0 0 0 0 0 0 0 1 35 68 45 77 2 10 5 1 13 25 11 160 350 309 176 111 2 0 0 18
0 0 0 0 0 0 0 0 0 0 0 0 0 0 0 0 0 0 0 0 0 0 0 1 26 56 55 114 37 42 148 90 111 53 55 16 441 133 357 285 205 35 0 0 4
0 0 0 0 0 0 0 0 0 0 0 0 0 0 0 0 0 0 0 0 0 0 0 5 44 55 53 95 380 261 84 381 203 97 107 261 436 90 372 359 324 151 77 0 0
0 0 0 0 0 0 0 0 0 0 0 0 0 0 0 0 0 0 0 0 0 0 0 3 80 39 29 181 222 196 108 227 212 65 126 90 191 309 125 178 222 323 232 91 0
0 0 0 0 0 0 0 0 0 0 0 0 1 0 0 0 0 0 0 0 0 0 3 30 61 61 65 52 330 285 303 73 30 4 0 187 528 279 144 50 192 247 402 464 119
0 0 0 0 0 0 0 0 0 0 0 0 0 0 0 0 0 0 0 0 0 0 0 15 53 60 22 145 334 104 206 106 31 43 1 128 529 200 9 22 70 89 304 605 500
0 0 0 0 0 0 0 0 0 0 0 0 0 0 0 0 15 0 0 0 0 0 0 0 15 44 60 74 498 223 319 145 13 9 0 17 566 165 37 19 141 177 182 373 656
0 0 0 0 0 0 0 0 0 0 0 0 0 0 0 0 0 0 0 0 0 0 0 0 0 66 0 12 265 463 190 87 5 42 0 0 1 132 23 20 178 166 221 303 333
0 0 0 0 0 0 4 3 0 0 0 0 0 0 0 0 0 0 0 0 0 0 0 0 9 116 114 41 75 232 160 178 89 28 28 54 27 32 21 37 334 730 939 1656 1812
0 0 7 0 0 0 0 0 0 4 3 0 0 0 0 0 0 0 0 0 0 0 565 69 1 12 125 38 56 41 52 205 206 17 40 27 3 39 1 8 137 336 450 725 1882
0 0 0 0 1 1 2 1 0 0 19 9 2 0 0 0 0 0 0 0 0 0 0 0 0 51 47 189 267 148 6 47 94 57 0 108 91 25 0 0 1 9 185 620 2075
0 0 0 0 0 0 0 0 0 0 2 25 37 34 20 0 0 0 12 0 0 0 0 0 15 32 90 257 134 13 63 1 83 31 54 26 97 151 59 0 0 0 22 833 2450
0 0 0 0 0 0 22 19 18 10 2 1 5 5 38 31 11 0 0 0 0 0 0 0 4 70 111 134 171 17 37 7 14 19 39 105 52 149 70 81 0 1 6 0 2200
CIN
0 0 0 0 0 0 0 0 0 0 0 0 0 0 0 0 0 0 0 0 0 -565 -440 0 -151 -108 -103 -94 -67 -31 -34 -167 -99 -8 -13 -63 -73 -32 -11 -25 -63 -43 -90 -87 -104
0 0 0 0 0 0 0 0 0 0 0 0 0 0 0 0 0 0 0 -384 -551 -530 0 -30 -108 -75 -83 -59 -24 -2 -32 0 -4 -7 -71 -8 -24 -2 -7 -33 -48 -68 -90 -121 -120
0 0 0 0 0 0 0 0 0 0 0 0 0 0 0 0 0 0 -448 -452 -586 -529 0 -32 -59 -63 -55 -41 -1 -2 -17 0 -39 -79 -203 -9 -137 -10 -6 -10 -63 -103 -132 -147 -144
0 0 0 0 0 0 0 0 0 0 0 0 0 0 0 0 0 0 -502 -458 -511 -14 0 -86 -57 -53 -36 -28 -7 0 -3 -24 -80 -243 -1 -11 -75 -9 -18 -17 -54 -111 -160 -167 -152
0 0 0 0 0 0 0 0 0 0 0 0 0 0 0 0 0 0 -450 -434 0 0 0 -72 -77 -72 -29 -22 -54 -7 -1 -115 -93 -2 -19 -16 -53 -13 -50 -285 -54 -114 -174 -170 -157
0 0 0 0 0 0 0 0 0 0 0 0 0 0 0 0 0 0 0 0 0 0 0 -55 -43 -42 -29 -19 -1 -22 -17 -34 -1 -5 -6 -3 -4 -11 -5 -9 -55 -125 -166 -183 -175
0 0 0 0 0 0 0 0 0 0 0 0 0 0 0 0 0 0 0 0 0 0 0 -79 -50 -2 -5 -1 -1 -5 -59 -4 -1 -2 0 -33 -1 -2 -2 -4 -68 -142 -153 -190 -179
0 0 0 0 0 0 0 0 0 0 0 0 0 0 0 0 0 0 0 0 0 0 0 0 0 -2 0 -7 -234 -150 -1 0 -9 -4 -5 -5 -7 -3 -8 -19 -45 -100 -141 -158 -213
0 0 0 0 0 0 0 0 0 0 0 0 0 0 0 0 0 0 0 0 0 0 0 0 -7 0 0 -1 -2 -4 0 -14 -50 -105 -4 -14 -103 -27 -9 -42 -21 -67 -106 -147 -108
0 0 0 0 0 0 0 0 0 0 0 0 0 0 0 0 0 0 0 0 0 0 0 0 -5 -2 -9 0 -3 -2 -28 -76 -261 -12 -130 -18 -54 -27 -51 -24 -43 -52 -96 -127 -159
0 0 0 0 0 0 0 0 0 0 0 0 0 0 0 0 0 0 0 0 0 0 0 0 0 0 -20 -4 -62 -68 -27 -32 -254 -248 -19 -5 -21 -39 0 -19 -42 -77 -95 -141 -144
0 0 0 0 0 0 0 0 0 0 0 0 0 0 0 0 0 0 0 0 0 0 0 0 -27 -28 -4 -6 -53 -21 -31 -13 -15 -179 -52 -185 -84 -31 0 -36 -75 -104 -131 -155 -155
0 0 0 0 0 0 0 0 0 0 0 0 0 0 0 0 0 0 0 0 0 0 0 -16 -14 -4 -3 -25 -51 -23 -9 -21 -6 -50 -69 -9 -97 -12 -20 -18 -57 0 -105 -163 -177
0 0 0 0 0 0 0 0 0 0 0 0 0 0 0 0 0 0 0 0 0 0 0 0 -9 -8 -2 -14 -57 -91 -19 -112 -10 0 -6 -76 -33 0 -10 -27 -72 0 0 -140 -208
0 0 0 0 0 0 0 0 0 0 0 0 0 0 0 0 0 0 0 0 0 0 0 0 -1 0 -1 -25 -27 -6 -288 -6 -2 -47 -4 -107 -5 0 -13 -40 -70 -7 0 0 -195
0 0 0 0 0 0 0 0 0 0 0 0 0 0 0 0 0 0 0 0 0 0 0 -6 -1 0 -1 -5 -6 -125 -118 -79 -75 -53 -76 -51 -9 -34 -4 -71 -68 -99 0 0 -63
0 0 0 0 0 0 0 0 0 0 0 0 0 0 0 0 0 0 0 0 0 0 0 0 0 -8 -7 -89 -42 -38 -17 -7 -1 0 -35 -53 -1 -2 -3 -20 -21 -60 -107 0 0
0 0 0 0 0 0 0 0 0 0 0 0 0 0 0 0 0 0 0 0 0 0 0 -3 -1 -1 -14 -36 -64 -31 -63 -18 -3 0 -7 -11 -43 0 -105 -35 -45 -1 -17 -80 0
0 0 0 0 0 0 0 0 0 0 0 -2 -1 0 0 0 0 0 0 0 0 0 -39 0 0 -2 -15 -5 -35 -75 -79 -92 -14 -101 0 -61 -14 -67 -15 -51 -24 -104 -3 -1 -81
0 0 0 0 0 0 0 0 0 0 -1 0 0 0 0 0 0 0 0 0 0 0 0 -21 -2 -5 -77 -4 -99 -7 -210 -9 -44 -17 -13 -82 -65 -19 -91 -158 -144 -162 -11 -3 -6
0 0 0 0 0 0 0 0 0 0 0 0 0 0 0 0 -1 0 0 0 0 0 0 0 -16 -49 -3 -11 -96 -156 -77 -41 -81 -75 0 -41 -56 -41 -257 -285 -150 -54 -5 0 -1
0 0 0 0 0 0 0 0 0 0 0 0 0 0 0 0 0 -1 0 0 0 0 0 0 0 -3 0 -29 -4 -47 -106 -108 -13 -36 0 0 -1 -19 -28 -11 -63 -196 -2 -9 -12
0 0 0 0 0 0 -1 0 0 0 0 0 0 0 0 0 0 0 0 0 0 0 0 -2 -1 0 -21 -79 -27 -3 -10 -69 -40 -105 -76 -4 -20 -22 -28 -7 -29 -51 -77 -129 -58
0 0 -2 0 0 0 0 0 0 0 0 0 0 0 0 0 0 0 0 0 -3 -1 -152 -30 0 -2 -29 -138 -18 -19 -50 0 -2 -13 -70 -167 -2 -23 -7 -26 -18 -27 -27 -52 -94
0 0 0 0 0 0 -1 0 0 0 -1 -1 -1 0 0 0 0 0 0 0 0 0 0 -1 0 0 -2 -49 -69 -63 -137 -6 -2 -5 -3 -17 -19 -304 0 0 -2 -31 -17 -8 -65
0 0 0 0 0 0 0 0 0 0 0 0 0 -1 0 0 0 0 -5 0 0 0 0 0 -38 -8 -1 -30 -115 -231 -174 -48 -24 -8 -2 -16 -2 -190 -227 0 0 0 -160 -3 -30
0 0 0 0 0 0 -1 -2 -1 -4 -3 0 -2 -3 -28 -4 -21 0 0 0 0 0 0 0 -26 -3 -1 -1 -37 -54 -22 -74 -18 -99 -54 -1 -6 -225 -426 -436 0 -43 -32 0 -31
Wind_Speed
nan nan nan nan nan nan nan nan nan nan nan nan nan nan nan nan nan nan nan nan nan 13 12 nan nan 7 12 15 14 19 14 11 nan nan 17 34 26 7 14 9 12 15 15 14 14
nan nan nan nan nan nan nan nan nan nan nan nan nan nan nan nan nan nan nan 17 21 16 nan nan 3 6 8 14 6 3 8 nan nan nan 41 25 18 18 14 15 15 21 22 20 16
nan nan nan nan nan nan nan nan nan nan nan nan nan nan nan nan nan nan 26 21 18 15 nan nan 5 7 9 10 12 4 11 nan nan 24 nan 18 22 6 14 12 17 18 19 21 20
nan nan nan nan nan nan nan nan nan nan nan nan nan nan nan nan nan nan 17 18 16 nan nan nan 7 5 5 6 11 9 18 22 4 41 16 6 27 nan 27 12 21 20 20 21 18
nan nan nan nan nan nan nan nan nan nan nan nan nan nan nan nan nan nan 17 17 nan nan nan nan nan nan 7 11 24 17 16 30 42 11 9 18 21 20 31 19 15 21 20 18 16
nan nan nan nan nan nan nan nan nan nan nan nan nan nan nan nan nan nan nan nan nan nan nan 9 nan nan nan 15 9 23 32 27 18 11 8 11 6 10 31 35 18 18 17 17 16
nan nan nan nan nan nan nan nan nan nan nan nan nan nan nan nan nan nan nan nan nan nan nan nan nan 11 7 9 21 25 9 15 10 17 10 nan 1 11 25 23 20 17 16 14 14
nan nan nan nan nan nan nan nan nan nan nan nan nan nan nan nan nan nan nan nan nan nan nan nan nan 12 21 21 35 34 10 9 14 17 3 11 6 6 24 16 21 17 13 11 nan
nan nan nan nan nan nan nan nan nan nan nan nan nan nan nan nan nan nan nan nan nan nan nan nan nan 14 17 12 2 9 7 10 39 41 12 18 17 21 15 nan 20 12 10 8 nan
nan nan nan nan nan nan nan nan nan nan nan nan nan nan nan nan nan nan nan nan nan nan nan nan nan nan nan 16 12 8 29 42 30 38 nan 23 nan 11 nan nan 14 7 7 5 7
nan nan nan nan nan nan nan nan nan nan nan nan nan nan nan nan nan nan nan nan nan nan nan nan nan nan nan 5 41 nan 46 nan nan nan nan 15 6 13 nan nan 12 4 4 5 8
nan nan nan nan nan nan nan nan nan nan nan nan nan nan nan nan nan nan nan nan nan nan nan nan nan nan nan 21 32 39 nan nan nan nan nan nan nan 25 nan nan nan 4 6 7 9
nan nan nan nan nan nan nan nan nan nan nan nan nan nan nan nan nan nan nan nan nan nan nan nan nan nan nan 33 37 nan nan nan nan nan nan nan nan 14 nan nan nan nan nan 6 8
nan nan nan nan nan nan nan nan nan nan nan nan nan nan nan nan nan nan nan nan nan nan nan nan nan nan nan 29 46 39 nan nan nan nan nan 41 13 6 14 7 15 nan nan nan nan
nan nan nan nan nan nan nan nan nan nan nan nan nan nan nan nan nan nan nan nan nan nan nan nan nan nan nan nan nan nan nan nan nan nan nan nan 19 10 26 11 14 nan nan nan nan
nan nan nan nan nan nan nan nan nan nan nan nan nan nan nan nan nan nan nan nan nan nan nan nan nan nan nan 27 nan nan 34 nan 18 nan nan nan 28 10 17 13 15 nan nan nan nan
nan nan nan nan nan nan nan nan nan nan nan nan nan nan nan nan nan nan nan nan nan nan nan nan nan nan nan nan 45 36 nan 10 22 nan 24 34 17 nan 21 31 25 15 nan nan nan
nan nan nan nan nan nan nan nan nan nan nan nan nan nan nan nan nan nan nan nan nan nan nan nan nan nan nan 39 32 13 35 21 15 nan 23 nan 41 21 22 35 33 13 20 nan nan
nan nan nan nan nan nan nan nan nan nan nan nan nan nan nan nan nan nan nan nan nan nan nan nan nan nan nan nan 52 40 34 nan nan nan nan 33 25 46 36 nan 36 17 11 24 22
nan nan nan nan nan nan nan nan nan nan nan nan nan nan nan nan nan nan nan nan nan nan nan nan nan nan nan 9 47 43 51 18 nan nan nan 34 30 41 nan nan nan nan 11 26 29
nan nan nan nan nan nan nan nan nan nan nan nan nan nan nan nan nan nan nan nan nan nan nan nan nan nan nan nan 58 41 39 34 nan nan nan nan 35 46 nan nan 66 25 21 26 24
nan nan nan nan nan nan nan nan nan nan nan nan nan nan nan nan nan nan nan nan nan nan nan nan nan nan nan nan 23 41 37 nan nan nan nan nan nan 55 nan nan 57 62 8 26 15
nan nan nan nan nan nan nan nan nan nan nan nan nan nan nan nan nan nan nan nan nan nan nan nan nan 22 27 nan nan 24 35 32 nan nan nan nan nan nan nan nan 61 68 75 61 62
nan nan nan nan nan nan nan nan nan nan nan nan nan nan nan nan nan nan nan nan nan nan 24 nan nan nan 36 nan nan nan nan 9 22 nan nan nan nan nan nan nan 56 75 81 77 54
nan nan nan nan nan nan nan nan nan nan nan nan nan nan nan nan nan nan nan nan nan nan nan nan nan nan nan 43 40 36 nan nan nan nan nan 16 nan nan nan nan nan nan 20 68 43
nan nan nan nan nan nan nan nan nan nan nan nan nan nan nan nan nan nan nan nan nan nan nan nan nan nan nan 39 36 nan nan nan nan nan nan nan nan 41 nan nan nan nan nan 46 33
nan nan nan nan nan nan nan nan nan nan nan nan nan nan nan nan nan nan nan nan nan nan nan nan nan nan 20 15 48 nan nan nan nan nan nan 16 nan 40 nan nan nan nan nan nan 22
Wind_Direction
nan nan nan nan nan nan nan nan nan nan nan nan nan nan nan nan nan nan nan nan nan 294 194 nan nan 114 125 113 96 106 156 191 nan nan 151 309 351 198 206 247 246 184 295 305 323
nan nan nan nan nan nan nan nan nan nan nan nan nan nan nan nan nan nan nan 242 253 266 nan nan 142 145 161 142 151 259 241 nan nan nan 94 260 173 298 287 254 251 247 273 301 325
nan nan nan nan nan nan nan nan nan nan nan nan nan nan nan nan nan nan 225 250 263 262 nan nan 177 161 154 150 139 24 256 nan nan 89 nan 239 286 37 294 302 284 283 298 318 323
nan nan nan nan nan nan nan nan nan nan nan nan nan nan nan nan nan nan 250 239 237 nan nan nan 179 163 148 145 116 103 333 321 54 108 180 211 168 nan 261 159 278 293 309 319 326
nan nan nan nan nan nan nan nan nan nan nan nan nan nan nan nan nan nan 250 242 nan nan nan nan nan nan 138 127 195 131 131 320 62 355 182 272 54 225 265 245 290 298 314 327 335
nan nan nan nan nan nan nan nan nan nan nan nan nan nan nan nan nan nan nan nan nan nan nan 175 nan nan nan 147 117 224 178 120 150 144 288 138 181 250 292 304 301 298 316 327 336
nan nan nan nan nan nan nan nan nan nan nan nan nan nan nan nan nan nan nan nan nan nan nan nan nan 183 172 147 182 156 343 143 118 120 321 nan 37 297 281 289 286 297 312 326 335
nan nan nan nan nan nan nan nan nan nan nan nan nan nan nan nan nan nan nan nan nan nan nan nan nan 180 170 203 231 156 140 142 89 1 183 320 122 189 273 287 288 307 313 323 nan
nan nan nan nan nan nan nan nan nan nan nan nan nan nan nan nan nan nan nan nan nan nan nan nan nan 191 184 194 244 27 164 186 191 161 307 248 188 179 273 nan 289 309 305 323 nan
nan nan nan nan nan nan nan nan nan nan nan nan nan nan nan nan nan nan nan nan nan nan nan nan nan nan nan 186 205 128 211 239 199 151 nan 205 nan 189 nan nan 292 301 308 333 1
nan nan nan nan nan nan nan nan nan nan nan nan nan nan nan nan nan nan nan nan nan nan nan nan nan nan nan 176 232 nan 214 nan nan nan nan 134 2 38 nan nan 288 300 298 348 341
nan nan nan nan nan nan nan nan nan nan nan nan nan nan nan nan nan nan nan nan nan nan nan nan nan nan nan 228 241 245 nan nan nan nan nan nan nan 307 nan nan nan 285 308 335 355
nan nan nan nan nan nan nan nan nan nan nan nan nan nan nan nan nan nan nan nan nan nan nan nan nan nan nan 264 245 nan nan nan nan nan nan nan nan 134 nan nan nan nan nan 337 5
nan nan nan nan nan nan nan nan nan nan nan nan nan nan nan nan nan nan nan nan nan nan nan nan nan nan nan 294 277 271 nan nan nan nan nan 165 282 131 275 231 249 nan nan nan nan
nan nan nan nan nan nan nan nan nan nan nan nan nan nan nan nan nan nan nan nan nan nan nan nan nan nan nan nan nan nan nan nan nan nan nan nan 166 154 298 240 254 nan nan nan nan
nan nan nan nan nan nan nan nan nan nan nan nan nan nan nan nan nan nan nan nan nan nan nan nan nan nan nan 277 nan nan 274 nan 319 nan nan nan 132 162 281 235 273 nan nan nan nan
nan nan nan nan nan nan nan nan nan nan nan nan nan nan nan nan nan nan nan nan nan nan nan nan nan nan nan nan 201 284 nan 217 271 nan 151 134 130 nan 325 295 296 294 nan nan nan
nan nan nan nan nan nan nan nan nan nan nan nan nan nan nan nan nan nan nan nan nan nan nan nan nan nan nan 278 304 247 259 205 245 nan 192 nan 184 215 221 236 239 304 309 nan nan
nan nan nan nan nan nan nan nan nan nan nan nan nan nan nan nan nan nan nan nan nan nan nan nan nan nan nan nan 262 253 245 nan nan nan nan 188 168 207 203 nan 211 183 287 296 289
nan nan nan nan nan nan nan nan nan nan nan nan nan nan nan nan nan nan nan nan nan nan nan nan nan nan nan 288 252 258 259 257 nan nan nan 198 173 292 nan nan nan nan 345 304 307
nan nan nan nan nan nan nan nan nan nan nan nan nan nan nan nan nan nan nan nan nan nan nan nan nan nan nan nan 274 274 258 255 nan nan nan nan 163 236 nan nan 156 176 169 288 302
nan nan nan nan nan nan nan nan nan nan nan nan nan nan nan nan nan nan nan nan nan nan nan nan nan nan nan nan 277 293 296 nan nan nan nan nan nan 194 nan nan 179 167 214 241 219
nan nan nan nan nan nan nan nan nan nan nan nan nan nan nan nan nan nan nan nan nan nan nan nan nan 229 261 nan nan 228 284 296 nan nan nan nan nan nan nan nan 176 170 189 196 212
nan nan nan nan nan nan nan nan nan nan nan nan nan nan nan nan nan nan nan nan nan nan 222 nan nan nan 260 nan nan nan nan 300 293 nan nan nan nan nan nan nan 189 183 181 161 233
nan nan nan nan nan nan nan nan nan nan nan nan nan nan nan nan nan nan nan nan nan nan nan nan nan nan nan 305 298 298 nan nan nan nan nan 329 nan nan nan nan nan nan 209 148 215
nan nan nan nan nan nan nan nan nan nan nan nan nan nan nan nan nan nan nan nan nan nan nan nan nan nan nan 287 282 nan nan nan nan nan nan nan nan 285 nan nan nan nan nan 146 222
nan nan nan nan nan nan nan nan nan nan nan nan nan nan nan nan nan nan nan nan nan nan nan nan nan nan 186 176 272 nan nan nan nan nan nan 256 nan 285 nan nan nan nan nan nan 214